sat.trackr.live / text

‹ back to catalog

STARLINK-6116

NORAD 56911 · 2023-083AM

PAYLOAD ACTIVE UNKNOWN

§ Identity

Operator
Country
US
Launch date
2023-06-12
Launch site
AFETR
Launch vehicle
Mass (kg)
RCS (m²)

Purposes: comms

External: N2YO · Heavens-Above · Gunter

§ Orbital elements

Epoch: 2026-09-20T16:38:26.883744Z

Period
94.27 min
Inclination
43.0030°
Eccentricity
0.0001241
Mean motion
15.27577010 rev/d
Perigee alt
482.2 km
Apogee alt
483.9 km
Semi-major
6,861.2 km
B*
8.6525e-6
RAAN
49.2123°
Arg perigee
260.5544°
Mean anomaly
99.5167°
Rev number
18,162

§ Raw data

STARLINK-61161 56911U 23083AM  26263.69336671 -.00000024  00000+0  86525-5 0  99952 56911  43.0030  49.2123 0001241 260.5544  99.5167 15.27577010181629

JSON: /api/v1/satellites/56911 · /tle

For live sub-satellite position, see the globe view (requires WebGL).

§ Visibility from observer

Set your observer location to see the next 7 days of passes ≥ 10°. The values pass through the URL so the page stays shareable.

No JS? Fill the form by hand. The geolocation button needs JavaScript.